Weather History for Rock Springs, WY

Change the Weather History Date:

Saturday, November 24, 2012

  Actual Average Record
Temperature  
Mean Temperature 38 °F 26 °F  
Max Temperature 52 °F 36 °F 56 °F (1970)
Min Temperature 23 °F 17 °F -6 °F (1993)
Degree Days  
Heating Degree Days 27 39  
Month to date heating degree days 655 785  
Since 1 July heating degree days 1402 1752  
Cooling Degree Days 0 0  
Month to date cooling degree days 0 0  
Year to date cooling degree days 541 286  
Moisture  
Dew Point 16 °F    
Average Humidity 43    
Maximum Humidity 63    
Minimum Humidity 22    
Precipitation  
Precipitation 0.00 in 0.02 in 0.09 in (1980)
Month to date precipitation 0.17 0.41  
Year to date precipitation 2.93 7.98  
Snow  
Snow 0.00 in - - ()
Snow Depth 0.00 in    
Sea Level Pressure  
Sea Level Pressure 30.15 in    
Wind  
Wind Speed 12 mph (WSW)    
Max Wind Speed 33 mph    
Max Gust Speed 41 mph    
Visibility 10 miles    
Events      
T = Trace of Precipitation, MM = Missing Value Source: NWS Daily Summary

Daily Weather History Graph

Daily Weather History Graph

Search for Another Location

Airport:

Trip Planner

Search our weather history database for the weather conditions in past years. The results will help you decide how hot, cold, wet, or windy it might be!

Date:

Astronomy

Nov. 24, 2012 Rise Set
Actual Time 7:16 AM MST 4:49 PM MST
Civil Twilight 6:45 AM MST 5:19 PM MST
Nautical Twilight 6:11 AM MST 5:54 PM MST
Astronomical Twilight 5:38 AM MST 6:27 PM MST
Moon 2:37 PM MST (11/24) 3:34 AM MST (11/24)
Length of Visible Light 10h 34m
Length of Day
9h 33m
Waxing Gibbous, 87% of the Moon is Illuminated
Nov 24
Waxing Gibbous
Nov 28
Full
Dec 6
Last Quarter
Dec 13
New
Dec 19
First Quarter

Hourly Weather History & Observations

Time (MST) Temp. Windchill Dew Point Humidity Pressure Visibility Wind Dir Wind Speed Gust Speed Precip Events Conditions
12:54 AM 32.0 °F 25.6 °F 17.1 °F 54% 30.29 in 10.0 mi WSW 6.9 mph - N/A   Clear
1:54 AM 33.1 °F 25.5 °F 17.1 °F 52% 30.27 in 10.0 mi WSW 9.2 mph - N/A   Clear
2:54 AM 34.0 °F 26.6 °F 18.0 °F 52% 30.25 in 10.0 mi SW 9.2 mph - N/A   Clear
3:54 AM 30.0 °F 25.2 °F 16.0 °F 56% 30.26 in 10.0 mi North 4.6 mph - N/A   Clear
4:54 AM 34.0 °F - 17.1 °F 50% 30.25 in 10.0 mi Calm Calm - N/A   Clear
5:54 AM 27.0 °F 18.7 °F 16.0 °F 63% 30.31 in 10.0 mi SSW 8.1 mph - N/A   Clear
6:54 AM 33.1 °F 25.5 °F 17.1 °F 52% 30.25 in 10.0 mi SW 9.2 mph - N/A   Clear
7:54 AM 34.0 °F 25.5 °F 17.1 °F 50% 30.25 in 10.0 mi SW 11.5 mph - N/A   Clear
8:54 AM 39.9 °F 32.9 °F 18.0 °F 41% 30.23 in 10.0 mi SW 11.5 mph - N/A   Clear
9:54 AM 41.0 °F 32.8 °F 18.0 °F 40% 30.23 in 10.0 mi SW 16.1 mph - N/A   Clear
10:54 AM 43.0 °F 35.4 °F 18.0 °F 37% 30.20 in 10.0 mi WSW 16.1 mph - N/A   Clear
11:54 AM 48.0 °F - 18.0 °F 30% 30.16 in 10.0 mi WSW 13.8 mph 20.7 mph N/A   Clear
12:54 PM 46.9 °F - 17.1 °F 30% 30.11 in 10.0 mi WSW 25.3 mph 32.2 mph N/A   Clear
1:54 PM 52.0 °F - 15.1 °F 23% 30.05 in 10.0 mi West 29.9 mph 38.0 mph N/A   Clear
2:54 PM 51.1 °F - 14.0 °F 23% 30.03 in 10.0 mi West 28.8 mph 39.1 mph N/A   Clear
3:54 PM 50.0 °F - 14.0 °F 24% 30.05 in 10.0 mi West 18.4 mph 31.1 mph N/A   Clear
4:54 PM 46.9 °F - 14.0 °F 27% 30.04 in 10.0 mi West 15.0 mph 24.2 mph N/A   Clear
5:54 PM 44.1 °F 37.4 °F 12.9 °F 28% 30.08 in 10.0 mi West 13.8 mph 25.3 mph N/A   Clear
6:54 PM 42.1 °F - 15.1 °F 34% 30.06 in 10.0 mi Calm Calm - N/A   Clear
7:54 PM 37.9 °F 32.1 °F 15.1 °F 39% 30.06 in 10.0 mi SSW 8.1 mph - N/A   Clear
8:54 PM 39.0 °F 35.7 °F 16.0 °F 39% 30.03 in 10.0 mi Variable 4.6 mph - N/A   Clear
9:54 PM 39.0 °F 32.8 °F 16.0 °F 39% 30.03 in 10.0 mi SSW 9.2 mph 18.4 mph N/A   Clear
10:54 PM 39.0 °F 32.8 °F 15.1 °F 38% 30.01 in 10.0 mi South 9.2 mph 16.1 mph N/A   Clear
11:54 PM 37.9 °F 31.5 °F 15.1 °F 39% 29.98 in 10.0 mi SSW 9.2 mph - N/A   Clear